默认 日期 大小 文件数 浏览量 最新下载 xml
crossover磁力链接相关资源由用户搜索指令自动获取,结果来源于网络,本站不存储任何资料,亦不承担任何责任,请于24小时内删除,搜索到1895个磁力,用时2ms。
    {"RARBG.txt": 30, "RARBG_DO_NOT_MIRROR.exe": 99, "The.Bold.Type.S05E02.The.Crossover.1080p.AMZN.WEB-DL.DDP5.1.H.264-NTb.mkv": 3044458239}
创建时间: 2021-06-18 23:43:05 大小:2.84 GB 文件数量:3 热度:3 最近下载:2025-02-28 14:56:02
    {"RARBG.txt": 30, "RARBG_DO_NOT_MIRROR.exe": 99, "The.Bold.Type.S05E02.The.Crossover.720p.AMZN.WEB-DL.DDP5.1.H.264-NTb.mkv": 1422497265}
创建时间: 2021-06-22 21:20:00 大小:1.32 GB 文件数量:3 热度:3 最近下载:2025-02-10 11:56:04
    {"[TGx]Downloaded from torrentgalaxy.to .txt": 718, "The.Bold.Type.S05E02.The.Crossover.720p.AMZN.WEB-DL.DDP5.1.H.264-NTb.mkv": 1422497265}
创建时间: 2021-06-23 18:40:27 大小:1.32 GB 文件数量:2 热度:3 最近下载:2025-02-25 08:44:06
    {"Inhuman_Nature-Live_At_The_Dev-WEB-2020-FiH": {"01-inhuman_nature-satans_claw_(live).mp3": 9568300, "07-inhuman_nature-holy_command_(live).mp3": 10000888, "09-inhuman_nature-taste_of_steel_(live).mp3": 10394819, "05-inhuman_nature-forgotten_tombs_(live). ...
创建时间: 2021-08-01 14:46:23 大小:78.66 MB 文件数量:12 热度:3 最近下载:2025-02-22 04:21:02
    {"Saga - 1978 - Saga (Remastered 2021) (24bit-48kHz)": {"folder.jpg": 194978, "01 How Long.mp3": 9820806, "07 Ice Nice.mp3": 16733766, "02 Humble Stance.mp3": 14059216, "05 Perfectionist.mp3": 13944976, "06 Give 'Em the Money.mp3": 10771226, "03 Climbing ...
创建时间: 2021-08-08 06:19:43 大小:390.42 MB 文件数量:37 热度:3 最近下载:2025-02-24 06:11:02
    {"CrossOver_v150129653_Pre-Cracked_Mac_OSX.zip": 9464338}
创建时间: 2021-08-16 20:00:48 大小:9.03 MB 文件数量:1 热度:3 最近下载:2025-01-26 16:33:01
    {"Saga - 1978 - Saga (Remastered 2021)": {"folder.jpg": 194978, "01 How Long.mp3": 9820806, "07 Ice Nice.mp3": 16733766, "02 Humble Stance.mp3": 14059216, "05 Perfectionist.mp3": 13944976, "06 Give 'Em the Money.mp3": 10771226, "03 Climbing the Ladder.mp3 ...
创建时间: 2021-08-25 19:41:21 大小:611.09 MB 文件数量:60 热度:3 最近下载:2025-01-04 16:38:04
    {"Anal Puff - 2019 - Femicide": {"cover.jpg": 287776, "01 - Mastitis.mp3": 1564790, "02 - Femiside.mp3": 2944055, "03 - Inspector.mp3": 2456090, "04 - Телевизор.mp3": 1484335}, "Anal Puff - 2021 - Baby Grind": {"cover.jpg": 1485079, "01 SCUM.mp3": 3632724, ...
创建时间: 2021-11-20 19:56:07 大小:158.32 MB 文件数量:31 热度:3 最近下载:2025-01-05 10:23:06
    {"El Crossover - Temporada 1 [HDTV][Cap.108][Castellano][www.atomohd.ninja].avi": 359860350}
创建时间: 2023-04-08 15:50:13 大小:343.19 MB 文件数量:1 热度:3 最近下载:2025-02-03 03:19:12
    ... .mkv": 1416763077, "The Crossover S01E06 Pressing DLMux 1080p E ... .mkv": 1336027076, "The Crossover S01E08 Rimbalzo DLMux 1080p E ... .mkv": 1631620423, "The Crossover S01E02 Sconfitta DLMux 1080p E ... .mkv": 1737116555, "The Crossover S01E07 La stretta DLMux 1080p ...
创建时间: 2023-04-08 17:42:26 大小:12.05 GB 文件数量:8 热度:3 最近下载:2025-01-21 16:31:08
    {"El Crossover - Temporada 1 [HDTV 720p][Cap.103][AC3 5.1 Castellano][www.atomohd.ninja].mkv": 700598879}
创建时间: 2023-04-08 20:01:41 大小:668.14 MB 文件数量:1 热度:3 最近下载:2025-01-14 20:48:03
    {"El Crossover - Temporada 1 [HDTV][Cap.106][Castellano][www.atomohd.ninja].avi": 305516290}
创建时间: 2023-04-09 05:28:41 大小:291.36 MB 文件数量:1 热度:3 最近下载:2025-01-18 05:09:07
    ... WDYM.mkv": 3399440657, "The.Crossover.S01E08.Rebound.2160p.DSNP.WEB ... .mkv": 4110026727, "The.Crossover.S01E05.Huddle.Up.2160p.DSNP ... .mkv": 3186402657, "The.Crossover.S01E02.The.Cold.Streak.2160p ... .mkv": 3685073036, "The.Crossover.S01E06.Full.Court.Press.2160p ...
创建时间: 2023-04-09 19:47:10 大小:25.2 GB 文件数量:9 热度:3 最近下载:2025-01-15 15:16:07
    {"Hollywood_Undead-Hotel_Kalifornia-WEB-2022-ENRiCH": {"01-hollywood_undead-chaos-db6d8d6d.mp3": 7632089, "12-hollywood_undead-reclaim-2e7a42a9.mp3": 8137285, "14-hollywood_undead-alright-15b22cf9.mp3": 8704187, "10-hollywood_undead-trap_god-4aca565a.mp3": ...
创建时间: 2023-04-10 20:54:14 大小:165.62 MB 文件数量:36 热度:3 最近下载:2025-02-06 23:43:02
    ... -K83.mkv": 538354679, "The.Crossover.2023.S01E02.PLDUB.480p.DSNP ... -K83.mkv": 497131792, "The.Crossover.2023.S01E03.PLDUB.480p.DSNP ... -K83.mkv": 426369156, "The.Crossover.2023.S01E04.PLDUB.480p.DSNP ... -K83.mkv": 418930036, "The.Crossover.2023.S01E05.PLDUB.480p.DSNP ...
创建时间: 2023-04-12 16:35:08 大小:3.39 GB 文件数量:11 热度:3 最近下载:2025-01-14 08:28:02
    {"AtomoHD ninja.url": 122, "ATOMOHD CANAL TELEGRAM.url": 114, "El Crossover - Temporada 1 [HDTV][Cap.103][Castellano][www.atomohd.ninja].avi": 341270676}
创建时间: 2023-04-18 08:25:45 大小:325.46 MB 文件数量:3 热度:3 最近下载:2025-01-15 12:14:11
    {"El Crossover - Temporada 1 [HDTV 720p][Cap.107][AC3 5.1 Castellano][www.atomohd.ninja].mkv": 712807892}
创建时间: 2023-04-20 15:27:16 大小:679.79 MB 文件数量:1 热度:3 最近下载:2025-02-19 09:54:02
    {"El Crossover - Temporada 1 [HDTV 720p][Cap.106][AC3 5.1 Castellano][www.atomohd.ninja].mkv": 634653530}
创建时间: 2023-05-12 07:11:52 大小:605.25 MB 文件数量:1 热度:3 最近下载:2025-02-07 01:20:02
    {"Codeweavers - CrossOver v22.1.1.iso": 388229120}
创建时间: 2023-06-05 22:09:04 大小:370.24 MB 文件数量:1 热度:3 最近下载:2025-01-13 09:34:04
    {"S01": {"Crossover_S01E08_Doskok.mkv": 847268598, "Crossover_S01E04_Time Out.mkv": 757207223, "Crossover_S01E07_Zovretie.mkv": 786496742, "Crossover_S01E05_Pritúliť sa.mkv": 844270153, "Crossover_S01E01_Bozky a objatia.mkv": 1163084369, "Crossover_S01E02_ ...
创建时间: 2023-09-14 18:11:02 大小:6.29 GB 文件数量:8 热度:3 最近下载:2025-01-28 19:55:02